2023/01/26 23:16:13+0000,-36.02,-46.19,-31.44,-44.73,-48.93,-51.19
2023/01/26 23:17:05+0000,-36.27,-46.65,-31.18,-41.91,-48.49,-52.09
2023/01/26 23:17:57+0000,-35.87,-46.65,-31.58,-43.92,-48.48,-48.07
2023/01/26 23:18:49+0000,-35.78,-46.38,-31.12,-45.40,-47.48,-49.33
2023/01/26 23:19:42+0000,-36.05,-45.07,-31.25,-43.53,-48.08,-52.41
2023/01/26 23:20:34+0000,-35.91,-46.73,-31.73,-45.06,-48.48,-52.57
2023/01/26 23:21:33+0000,-36.52,-46.77,-30.37,-45.30,-49.47,-52.52
2023/01/26 23:22:25+0000,-36.80,-46.55,-30.89,-42.69,-50.12,-50.21
2023/01/26 23:23:17+0000,-36.00,-46.35,-30.72,-44.42,-48.35,-52.24
2023/01/26 23:24:09+0000,-36.21,-45.80,-31.41,-43.92,-49.01,-52.36
2023/01/26 23:25:01+0000,-37.35,-45.14,-31.33,-44.21,-49.25,-53.45
2023/01/26 23:25:53+0000,-36.05,-46.65,-30.55,-43.61,-47.10,-48.74
2023/01/26 23:26:45+0000,-36.29,-46.04,-30.96,-44.41,-47.80,-52.77
2023/01/26 23:27:37+0000,-37.36,-45.60,-31.52,-41.76,-48.09,-51.68
2023/01/26 23:28:29+0000,-36.98,-45.41,-31.30,-42.86,-48.38,-49.38
2023/01/26 23:29:21+0000,-36.76,-45.76,-31.16,-44.07,-48.50,-50.45
2023/01/26 23:30:14+0000,-37.00,-43.92,-31.44,-43.61,-49.51,-51.12
2023/01/26 23:31:13+0000,-36.44,-44.68,-31.51,-44.38,-47.99,-51.46
2023/01/26 23:32:05+0000,-37.66,-45.43,-31.37,-44.72,-45.16,-52.11
2023/01/26 23:32:57+0000,-36.51,-45.88,-31.36,-44.02,-46.19,-50.20
2023/01/26 23:33:49+0000,-37.14,-44.01,-31.05,-45.46,-48.40,-50.18
2023/01/26 23:34:41+0000,-37.22,-44.29,-31.25,-42.46,-49.80,-52.62
2023/01/26 23:35:33+0000,-36.71,-45.92,-31.68,-44.53,-47.11,-52.05
2023/01/26 23:36:25+0000,-36.96,-46.42,-30.52,-42.71,-50.17,-50.51
2023/01/26 23:37:17+0000,-36.62,-45.02,-31.09,-43.43,-48.50,-52.00
2023/01/26 23:38:09+0000,-36.29,-44.63,-31.58,-45.09,-48.43,-51.45
2023/01/26 23:39:01+0000,-36.54,-45.97,-31.52,-45.05,-49.46,-52.47
2023/01/26 23:39:53+0000,-37.02,-45.82,-30.66,-44.95,-47.86,-51.75
2023/01/26 23:40:45+0000,-37.28,-44.39,-31.00,-45.53,-48.41,-52.39
2023/01/26 23:41:45+0000,-36.51,-44.80,-31.24,-44.62,-47.76,-52.33
2023/01/26 23:42:37+0000,-36.84,-45.35,-31.01,-44.82,-40.76,-52.10
2023/01/26 23:43:29+0000,-36.80,-45.28,-31.15,-45.37,-45.62,-51.89
2023/01/26 23:44:21+0000,-37.53,-45.46,-31.21,-44.97,-48.99,-52.15
2023/01/26 23:45:13+0000,-36.30,-44.83,-31.31,-44.80,-49.04,-51.72
2023/01/26 23:46:05+0000,-36.51,-45.23,-30.83,-47.92,-47.97,-52.31
2023/01/26 23:46:57+0000,-36.56,-45.41,-31.56,-45.72,-50.28,-51.23
2023/01/26 23:47:49+0000,-35.86,-45.09,-30.90,-46.66,-48.69,-51.54
2023/01/26 23:48:41+0000,-37.81,-45.24,-30.92,-44.96,-49.27,-52.30
2023/01/26 23:49:33+0000,-37.83,-45.42,-30.90,-46.94,-47.38,-52.04
2023/01/26 23:50:25+0000,-36.39,-45.50,-30.80,-45.64,-50.14,-51.04
2023/01/26 23:51:25+0000,-37.32,-44.67,-31.05,-45.90,-49.36,-51.28
2023/01/26 23:52:17+0000,-36.07,-44.52,-30.97,-43.38,-48.92,-52.21
2023/01/26 23:53:09+0000,-36.14,-45.07,-31.12,-42.62,-43.60,-52.78
2023/01/26 23:54:01+0000,-36.74,-43.68,-31.49,-44.02,-48.91,-51.21
2023/01/26 23:54:53+0000,-37.82,-45.16,-31.17,-43.62,-47.35,-50.71
2023/01/26 23:55:45+0000,-37.00,-45.76,-31.10,-43.54,-46.32,-51.66
2023/01/26 23:56:37+0000,-37.17,-45.91,-30.52,-42.98,-48.82,-52.28
2023/01/26 23:57:29+0000,-37.19,-44.88,-31.55,-45.75,-48.37,-52.05
2023/01/26 23:58:21+0000,-36.75,-44.76,-31.28,-46.22,-48.50,-52.74
2023/01/26 23:59:13+0000,-36.86,-43.94,-32.06,-44.78,-48.90,-51.83
2023/01/27 00:00:05+0000,-36.49,-44.58,-31.79,-45.80,-47.36,-51.34
2023/01/27 00:01:08+0000,-37.32,-45.59,-31.62,-44.13,-47.51,-51.84
2023/01/27 00:02:00+0000,-36.52,-43.64,-31.23,-45.21,-47.08,-52.39
2023/01/27 00:02:52+0000,-36.97,-43.99,-31.73,-45.34,-48.59,-50.43
2023/01/27 00:03:44+0000,-36.91,-45.12,-31.26,-42.50,-45.40,-50.73
2023/01/27 00:04:36+0000,-37.42,-45.57,-31.01,-44.08,-48.51,-51.65
2023/01/27 00:05:28+0000,-37.08,-42.64,-31.28,-45.11,-47.94,-50.06
2023/01/27 00:06:20+0000,-36.71,-45.09,-31.69,-45.41,-49.19,-51.25
2023/01/27 00:07:12+0000,-36.67,-45.43,-31.21,-45.20,-49.78,-51.62
2023/01/27 00:08:04+0000,-37.09,-42.29,-31.09,-45.87,-48.26,-52.16
2023/01/27 00:08:56+0000,-37.58,-42.94,-31.30,-44.82,-47.25,-49.96
2023/01/27 00:09:48+0000,-37.67,-44.86,-31.27,-46.05,-48.75,-50.38
2023/01/27 00:10:40+0000,-36.61,-44.82,-30.74,-44.83,-49.42,-52.26
2023/01/27 00:11:40+0000,-37.25,-45.34,-30.82,-44.47,-49.38,-51.04
2023/01/27 00:12:32+0000,-36.46,-44.10,-31.27,-45.31,-47.64,-52.20
2023/01/27 00:13:24+0000,-35.74,-44.46,-30.88,-44.17,-49.67,-52.13
2023/01/27 00:14:16+0000,-35.91,-45.00,-30.91,-43.99,-48.47,-52.18
2023/01/27 00:15:08+0000,-35.63,-43.91,-31.36,-45.08,-47.07,-49.78
2023/01/27 00:16:00+0000,-36.01,-44.64,-31.23,-44.94,-49.26,-52.19
2023/01/27 00:16:52+0000,-35.73,-45.70,-31.20,-45.59,-44.64,-51.59
2023/01/27 00:17:44+0000,-36.55,-43.78,-31.06,-45.47,-49.12,-50.75
2023/01/27 00:18:36+0000,-35.23,-44.52,-31.21,-45.55,-47.91,-50.53
2023/01/27 00:19:28+0000,-36.25,-44.68,-30.70,-45.44,-48.30,-52.09
2023/01/27 00:20:20+0000,-36.37,-44.28,-30.76,-45.59,-47.84,-52.61
2023/01/27 00:21:23+0000,-36.23,-42.11,-31.46,-44.46,-49.40,-52.35
2023/01/27 00:22:15+0000,-36.90,-44.48,-30.50,-45.14,-46.58,-53.17
2023/01/27 00:23:07+0000,-36.56,-45.18,-30.97,-45.51,-44.51,-52.66
2023/01/27 00:24:00+0000,-36.37,-43.57,-31.06,-45.39,-47.43,-52.48
2023/01/27 00:24:52+0000,-36.57,-44.99,-31.82,-45.84,-48.65,-52.01
2023/01/27 00:25:44+0000,-37.23,-45.19,-31.15,-44.64,-49.75,-51.89
2023/01/27 00:26:36+0000,-36.32,-45.87,-31.12,-41.99,-46.37,-52.46
2023/01/27 00:27:28+0000,-37.01,-41.25,-31.53,-42.30,-47.08,-52.95
2023/01/27 00:28:20+0000,-35.88,-44.51,-30.81,-42.75,-48.40,-52.39
2023/01/27 00:29:12+0000,-36.30,-44.62,-30.75,-41.90,-46.50,-52.50
2023/01/27 00:30:04+0000,-36.02,-41.91,-30.01,-43.57,-45.82,-52.06
2023/01/27 00:31:03+0000,-36.03,-41.01,-29.21,-43.66,-47.41,-52.07
2023/01/27 00:31:55+0000,-36.14,-43.31,-31.21,-42.24,-49.12,-52.26
2023/01/27 00:32:47+0000,-35.91,-43.36,-30.97,-40.90,-49.39,-51.99
2023/01/27 00:33:39+0000,-35.99,-42.72,-29.93,-41.19,-50.10,-51.69
2023/01/27 00:34:32+0000,-36.16,-44.48,-30.53,-41.87,-46.67,-52.45
2023/01/27 00:35:24+0000,-36.17,-43.54,-31.31,-41.92,-45.74,-52.30
2023/01/27 00:36:16+0000,-36.10,-43.75,-30.98,-41.44,-46.60,-52.75
2023/01/27 00:37:08+0000,-36.54,-44.57,-29.15,-42.71,-48.01,-51.79
2023/01/27 00:38:00+0000,-36.54,-43.57,-30.40,-41.80,-48.04,-52.72
2023/01/27 00:38:52+0000,-36.48,-44.33,-30.99,-41.34,-47.77,-52.93
2023/01/27 00:39:44+0000,-36.41,-44.48,-31.10,-41.21,-43.67,-52.34
2023/01/27 00:40:36+0000,-35.26,-44.78,-30.49,-42.46,-48.23,-52.09
2023/01/27 00:41:34+0000,-36.33,-42.63,-30.29,-43.18,-48.61,-52.72
2023/01/27 00:42:26+0000,-35.48,-43.42,-30.51,-42.60,-49.16,-51.98
2023/01/27 00:43:18+0000,-35.85,-44.41,-30.59,-42.29,-48.04,-53.13
2023/01/27 00:44:10+0000,-35.73,-43.53,-30.16,-41.63,-49.08,-52.77
2023/01/27 00:45:02+0000,-35.61,-44.27,-30.64,-41.70,-48.51,-52.22
2023/01/27 00:45:54+0000,-35.47,-43.15,-31.14,-41.81,-48.62,-52.24
2023/01/27 00:46:46+0000,-35.27,-43.04,-30.50,-43.03,-48.84,-52.94
2023/01/27 00:47:38+0000,-35.97,-44.35,-30.70,-43.25,-48.67,-52.36
2023/01/27 00:48:30+0000,-36.24,-42.47,-30.46,-42.04,-48.08,-52.61
2023/01/27 00:49:22+0000,-35.43,-44.19,-30.76,-41.14,-47.48,-52.62
2023/01/27 00:50:15+0000,-36.38,-44.03,-31.40,-41.76,-48.02,-52.73
2023/01/27 00:51:15+0000,-36.42,-42.95,-30.98,-42.69,-48.43,-53.08
2023/01/27 00:52:07+0000,-37.16,-44.54,-30.82,-43.04,-47.55,-52.86
2023/01/27 00:52:59+0000,-35.77,-44.57,-31.08,-41.34,-48.05,-52.37
2023/01/27 00:53:51+0000,-35.79,-43.42,-31.53,-43.02,-47.92,-51.58
2023/01/27 00:54:43+0000,-35.90,-43.14,-30.36,-42.64,-48.56,-52.54
2023/01/27 00:55:35+0000,-35.65,-43.04,-31.10,-43.05,-48.27,-52.62
2023/01/27 00:56:27+0000,-34.88,-43.52,-31.69,-42.63,-48.86,-53.00
2023/01/27 00:57:19+0000,-35.52,-43.01,-31.23,-43.36,-44.42,-52.01
2023/01/27 00:58:11+0000,-35.23,-42.52,-30.78,-42.11,-44.78,-51.54
2023/01/27 00:59:03+0000,-35.92,-43.08,-30.93,-41.36,-43.35,-51.54
2023/01/27 00:59:55+0000,-36.14,-43.70,-30.72,-41.33,-44.55,-51.76
2023/01/27 01:00:47+0000,-36.43,-43.85,-30.70,-41.60,-44.65,-52.12
2023/01/27 01:01:46+0000,-36.88,-43.83,-31.20,-42.71,-45.29,-50.95
2023/01/27 01:02:38+0000,-35.88,-43.95,-30.44,-42.33,-45.87,-51.17
2023/01/27 01:03:30+0000,-36.72,-42.72,-31.28,-41.13,-44.60,-51.61
2023/01/27 01:04:22+0000,-36.44,-45.02,-31.24,-40.85,-44.43,-51.46
2023/01/27 01:05:14+0000,-36.63,-43.25,-31.38,-42.21,-45.92,-51.03
2023/01/27 01:06:07+0000,-36.20,-45.69,-31.14,-42.88,-44.54,-51.72
2023/01/27 01:06:59+0000,-36.88,-43.71,-31.08,-43.24,-43.59,-51.68
2023/01/27 01:07:51+0000,-35.03,-45.59,-31.13,-42.52,-45.78,-50.76
2023/01/27 01:08:43+0000,-35.72,-42.82,-30.70,-42.72,-45.11,-51.81
2023/01/27 01:09:35+0000,-35.01,-45.43,-30.27,-42.40,-43.14,-51.48
2023/01/27 01:10:27+0000,-35.32,-41.98,-31.04,-42.60,-44.99,-51.19
2023/01/27 01:11:26+0000,-35.81,-43.82,-31.62,-42.47,-45.96,-51.43
2023/01/27 01:12:18+0000,-35.02,-43.25,-31.06,-43.28,-45.75,-51.76
2023/01/27 01:13:10+0000,-34.70,-42.93,-30.54,-42.41,-45.83,-51.84
2023/01/27 01:14:02+0000,-35.48,-43.60,-31.26,-41.80,-44.05,-51.67
2023/01/27 01:14:54+0000,-36.55,-43.45,-31.12,-43.17,-46.07,-51.16
2023/01/27 01:15:46+0000,-36.30,-42.11,-30.95,-43.42,-44.00,-51.39
2023/01/27 01:16:38+0000,-36.76,-42.66,-32.06,-43.27,-45.04,-51.26
2023/01/27 01:17:30+0000,-36.41,-43.29,-31.39,-41.97,-43.05,-51.60
2023/01/27 01:18:22+0000,-36.64,-44.71,-31.52,-42.34,-44.30,-51.47
2023/01/27 01:19:14+0000,-36.58,-43.26,-31.11,-42.82,-44.37,-51.98
2023/01/27 01:20:07+0000,-35.32,-44.64,-31.26,-42.14,-43.56,-52.25
2023/01/27 01:21:06+0000,-36.15,-45.00,-30.86,-42.93,-45.65,-51.61
2023/01/27 01:21:58+0000,-35.14,-44.28,-31.00,-42.34,-45.56,-51.21
2023/01/27 01:22:51+0000,-34.39,-45.10,-31.36,-42.69,-44.53,-51.43
2023/01/27 01:23:43+0000,-34.76,-42.32,-30.78,-43.60,-46.09,-52.26
2023/01/27 01:24:35+0000,-35.07,-42.93,-31.57,-44.05,-45.44,-51.90
2023/01/27 01:25:27+0000,-35.62,-42.80,-31.40,-42.30,-46.55,-50.88
2023/01/27 01:26:19+0000,-34.98,-43.23,-30.98,-43.55,-44.97,-51.57
2023/01/27 01:27:11+0000,-35.07,-42.63,-31.69,-42.73,-45.47,-51.63
2023/01/27 01:28:03+0000,-34.83,-41.76,-31.45,-41.21,-45.08,-51.34
2023/01/27 01:28:55+0000,-35.15,-43.67,-31.71,-42.42,-46.53,-51.54
2023/01/27 01:29:47+0000,-35.07,-43.24,-32.39,-41.01,-44.93,-51.38
2023/01/27 01:30:39+0000,-35.44,-42.71,-32.25,-42.90,-45.61,-52.23
2023/01/27 01:31:38+0000,-34.70,-43.84,-31.87,-43.65,-45.50,-50.93
2023/01/27 01:32:30+0000,-35.87,-42.70,-31.80,-44.09,-45.82,-51.51
2023/01/27 01:33:22+0000,-36.24,-44.64,-32.07,-42.49,-45.25,-50.98
2023/01/27 01:34:14+0000,-36.78,-43.43,-31.74,-42.43,-45.35,-51.29
2023/01/27 01:35:06+0000,-33.91,-44.80,-31.31,-42.64,-45.34,-52.09
2023/01/27 01:35:58+0000,-36.04,-44.27,-31.70,-40.95,-45.59,-52.12
2023/01/27 01:36:50+0000,-35.76,-42.24,-31.55,-43.58,-45.69,-51.30
2023/01/27 01:37:42+0000,-35.78,-43.25,-31.57,-43.15,-45.89,-52.40
2023/01/27 01:38:34+0000,-35.23,-43.37,-31.54,-43.70,-46.01,-52.04
2023/01/27 01:39:26+0000,-35.98,-43.58,-31.41,-41.78,-45.58,-51.50
2023/01/27 01:40:19+0000,-35.71,-43.92,-31.25,-44.09,-45.62,-51.87
2023/01/27 01:41:18+0000,-36.16,-43.86,-31.78,-42.82,-44.96,-52.10
2023/01/27 01:42:10+0000,-34.91,-43.14,-32.04,-42.44,-45.36,-52.61
2023/01/27 01:43:02+0000,-35.86,-43.27,-30.92,-40.53,-45.82,-52.19
2023/01/27 01:43:54+0000,-34.89,-44.05,-30.89,-41.80,-45.64,-51.71
2023/01/27 01:44:46+0000,-36.13,-44.08,-32.19,-42.17,-45.29,-52.16
2023/01/27 01:45:38+0000,-35.73,-44.46,-31.50,-42.25,-46.05,-52.00
2023/01/27 01:46:30+0000,-34.84,-42.84,-31.30,-40.37,-45.03,-52.33
2023/01/27 01:47:22+0000,-35.88,-44.20,-31.39,-41.68,-45.28,-51.66
2023/01/27 01:48:14+0000,-35.92,-43.25,-31.74,-42.15,-44.80,-51.98
2023/01/27 01:49:06+0000,-36.15,-44.43,-31.32,-42.90,-45.25,-52.38
2023/01/27 01:49:58+0000,-35.72,-43.21,-31.79,-41.63,-45.58,-51.99
2023/01/27 01:50:50+0000,-36.16,-43.20,-31.93,-43.31,-45.07,-52.43
2023/01/27 01:51:50+0000,-36.63,-43.03,-30.72,-43.87,-45.99,-51.91
2023/01/27 01:52:42+0000,-33.79,-44.29,-31.14,-42.50,-45.81,-52.36
2023/01/27 01:53:34+0000,-34.61,-44.21,-31.12,-43.36,-45.37,-52.12
2023/01/27 01:54:26+0000,-36.02,-43.85,-30.66,-42.62,-45.66,-52.19
2023/01/27 01:55:18+0000,-36.91,-44.24,-31.04,-42.83,-46.16,-52.15
2023/01/27 01:56:10+0000,-36.22,-44.90,-31.59,-43.86,-46.05,-51.44
2023/01/27 01:57:02+0000,-36.02,-44.29,-31.48,-43.38,-45.79,-51.77
2023/01/27 01:57:54+0000,-36.04,-45.64,-30.81,-43.14,-45.78,-51.87
2023/01/27 01:58:46+0000,-36.23,-44.53,-31.21,-43.52,-45.01,-51.06
2023/01/27 01:59:38+0000,-35.92,-45.07,-30.90,-42.98,-45.38,-51.33
2023/01/27 02:00:30+0000,-35.74,-44.09,-31.61,-42.51,-46.38,-49.93
2023/01/27 02:01:30+0000,-35.54,-41.52,-30.79,-43.54,-45.81,-50.50
2023/01/27 02:02:22+0000,-36.34,-43.78,-30.82,-41.84,-46.20,-52.00
2023/01/27 02:03:14+0000,-35.68,-44.21,-30.69,-43.26,-45.55,-52.92
2023/01/27 02:04:06+0000,-36.47,-44.56,-31.00,-45.32,-46.09,-52.23
2023/01/27 02:04:58+0000,-35.51,-43.14,-30.70,-38.45,-46.36,-52.23
2023/01/27 02:05:50+0000,-36.02,-45.61,-31.04,-43.57,-46.23,-52.46
2023/01/27 02:06:42+0000,-34.58,-44.35,-31.03,-44.30,-46.52,-52.18
2023/01/27 02:07:34+0000,-35.12,-44.19,-30.33,-46.42,-46.57,-52.30
2023/01/27 02:08:26+0000,-36.39,-43.44,-31.22,-40.82,-46.10,-51.73
2023/01/27 02:09:18+0000,-36.68,-43.16,-30.62,-46.92,-46.65,-52.20
2023/01/27 02:10:10+0000,-35.28,-43.57,-30.22,-43.85,-45.87,-52.02
2023/01/27 02:11:09+0000,-35.47,-43.61,-31.11,-45.15,-46.04,-51.37
2023/01/27 02:12:01+0000,-35.30,-43.72,-31.19,-45.04,-45.46,-51.44
2023/01/27 02:12:53+0000,-36.14,-43.32,-30.88,-44.57,-46.01,-52.39
2023/01/27 02:13:45+0000,-35.73,-42.21,-31.25,-44.89,-45.65,-51.94
2023/01/27 02:14:37+0000,-36.60,-42.76,-30.84,-45.24,-46.12,-51.87
2023/01/27 02:15:29+0000,-35.66,-42.06,-30.31,-40.68,-45.58,-52.33
2023/01/27 02:16:21+0000,-35.39,-43.67,-31.33,-42.22,-45.75,-52.19
2023/01/27 02:17:13+0000,-36.34,-42.98,-31.76,-44.65,-46.26,-52.17
2023/01/27 02:18:06+0000,-35.00,-43.62,-31.48,-46.42,-45.80,-52.49
2023/01/27 02:18:58+0000,-36.29,-43.07,-31.14,-43.07,-46.08,-52.21
2023/01/27 02:19:50+0000,-35.38,-42.84,-31.33,-47.29,-45.51,-51.85
2023/01/27 02:20:42+0000,-36.08,-42.95,-31.20,-45.90,-45.53,-51.26
2023/01/27 02:21:41+0000,-36.30,-42.49,-30.85,-46.58,-45.91,-51.48
2023/01/27 02:22:33+0000,-35.74,-43.58,-30.83,-47.46,-46.15,-51.84
2023/01/27 02:23:25+0000,-35.45,-43.74,-31.02,-45.16,-45.83,-51.58
2023/01/27 02:24:17+0000,-37.07,-42.60,-30.78,-47.20,-46.49,-51.86
2023/01/27 02:25:09+0000,-34.04,-43.56,-30.73,-47.43,-45.69,-51.41
2023/01/27 02:26:01+0000,-35.28,-43.62,-31.24,-43.53,-46.19,-51.35
2023/01/27 02:26:53+0000,-35.75,-44.40,-31.09,-44.66,-45.79,-51.72
2023/01/27 02:27:45+0000,-35.98,-43.07,-31.48,-45.91,-46.10,-52.00
2023/01/27 02:28:37+0000,-36.16,-43.14,-30.95,-46.06,-45.56,-51.57
2023/01/27 02:29:29+0000,-35.54,-43.80,-30.64,-44.08,-46.22,-51.79
2023/01/27 02:30:22+0000,-34.73,-43.85,-30.84,-44.63,-45.75,-52.15
2023/01/27 02:31:20+0000,-34.84,-42.30,-31.82,-44.69,-46.27,-52.30
2023/01/27 02:32:12+0000,-37.29,-42.30,-31.11,-45.48,-46.20,-51.92
2023/01/27 02:33:04+0000,-36.07,-42.85,-30.62,-46.45,-45.27,-50.43
2023/01/27 02:33:56+0000,-33.36,-43.24,-31.55,-42.03,-45.73,-50.72
2023/01/27 02:34:48+0000,-36.45,-42.14,-31.38,-47.08,-46.08,-50.72
2023/01/27 02:35:40+0000,-37.45,-42.07,-30.74,-46.76,-45.30,-51.59
2023/01/27 02:36:32+0000,-36.04,-42.93,-31.16,-45.82,-45.74,-50.77
2023/01/27 02:37:24+0000,-36.75,-42.56,-31.40,-45.06,-45.69,-51.08
2023/01/27 02:38:16+0000,-36.01,-42.50,-30.91,-45.65,-45.55,-51.22
2023/01/27 02:39:08+0000,-35.26,-41.58,-31.18,-46.54,-45.89,-51.40
2023/01/27 02:40:00+0000,-36.07,-43.08,-30.94,-46.46,-45.97,-51.04
2023/01/27 02:41:00+0000,-36.59,-43.80,-31.22,-45.85,-45.92,-50.61
2023/01/27 02:41:52+0000,-36.64,-44.15,-31.61,-45.56,-45.59,-51.42
2023/01/27 02:42:44+0000,-36.40,-41.94,-31.37,-46.25,-45.68,-50.89
2023/01/27 02:43:36+0000,-36.19,-44.76,-30.57,-45.86,-45.03,-51.38
2023/01/27 02:44:28+0000,-35.24,-43.77,-32.36,-45.73,-45.58,-50.99
2023/01/27 02:45:20+0000,-35.79,-43.36,-31.17,-46.76,-45.66,-50.38
2023/01/27 02:46:12+0000,-36.83,-43.20,-31.22,-45.49,-46.34,-50.51
2023/01/27 02:47:04+0000,-36.44,-42.15,-30.29,-45.66,-45.90,-51.81
2023/01/27 02:47:56+0000,-35.81,-42.82,-31.15,-40.96,-45.91,-51.16
2023/01/27 02:48:48+0000,-35.97,-41.57,-30.85,-45.12,-45.57,-50.88
2023/01/27 02:49:40+0000,-35.81,-42.73,-31.08,-46.71,-45.94,-50.81
2023/01/27 02:50:32+0000,-37.36,-42.58,-31.79,-45.61,-45.65,-51.14
2023/01/27 02:51:31+0000,-36.58,-42.98,-30.84,-46.08,-45.62,-50.96
2023/01/27 02:52:23+0000,-35.67,-43.94,-30.61,-45.52,-46.10,-50.71
2023/01/27 02:53:15+0000,-35.82,-42.63,-30.58,-46.05,-45.97,-50.59
2023/01/27 02:54:07+0000,-36.62,-43.31,-30.72,-46.18,-45.89,-50.66
2023/01/27 02:54:59+0000,-35.93,-42.91,-30.78,-44.17,-45.59,-51.03
2023/01/27 02:55:52+0000,-36.48,-43.38,-30.22,-45.64,-46.63,-50.09
2023/01/27 02:56:44+0000,-35.97,-41.44,-31.23,-46.71,-46.12,-50.47
2023/01/27 02:57:36+0000,-35.76,-44.75,-31.20,-46.43,-46.02,-50.55
2023/01/27 02:58:28+0000,-36.90,-42.92,-30.20,-44.25,-45.68,-51.05
2023/01/27 02:59:20+0000,-35.78,-43.27,-30.51,-44.46,-45.16,-51.10
2023/01/27 03:00:12+0000,-33.82,-41.68,-30.54,-44.12,-45.20,-51.13
2023/01/27 03:01:12+0000,-34.14,-41.96,-30.25,-46.63,-46.29,-51.82
2023/01/27 03:02:04+0000,-33.28,-43.26,-30.05,-47.36,-46.10,-51.07
2023/01/27 03:02:56+0000,-35.88,-42.79,-30.41,-46.28,-45.49,-51.01
2023/01/27 03:03:48+0000,-35.28,-42.70,-30.39,-47.09,-45.88,-50.81
2023/01/27 03:04:40+0000,-34.79,-42.14,-29.43,-46.74,-46.27,-51.76
2023/01/27 03:05:32+0000,-32.95,-42.98,-29.52,-46.78,-45.71,-51.86
2023/01/27 03:06:24+0000,-35.26,-42.61,-30.58,-47.75,-46.09,-51.57
2023/01/27 03:07:16+0000,-35.44,-43.07,-30.74,-47.30,-45.73,-51.33
2023/01/27 03:08:08+0000,-34.60,-43.27,-29.82,-46.69,-45.76,-51.55
2023/01/27 03:09:00+0000,-35.99,-42.49,-30.06,-47.64,-45.72,-51.40
2023/01/27 03:09:52+0000,-35.26,-43.08,-30.69,-47.39,-45.73,-51.43
2023/01/27 03:10:44+0000,-35.93,-42.07,-30.42,-47.14,-46.00,-50.81
2023/01/27 03:11:44+0000,-36.80,-43.20,-30.38,-47.97,-45.98,-51.42
2023/01/27 03:12:36+0000,-35.82,-45.36,-30.96,-47.70,-46.26,-51.66
2023/01/27 03:13:28+0000,-36.77,-42.85,-30.20,-47.98,-45.61,-51.79
2023/01/27 03:14:20+0000,-35.72,-44.36,-30.52,-47.47,-46.31,-51.02
2023/01/27 03:15:12+0000,-36.46,-41.64,-30.81,-47.52,-45.84,-51.15
2023/01/27 03:16:04+0000,-36.16,-44.21,-30.75,-47.15,-45.66,-51.67
2023/01/27 03:16:56+0000,-35.48,-42.96,-30.97,-47.08,-45.78,-51.64
2023/01/27 03:17:48+0000,-36.29,-40.57,-29.97,-47.07,-45.35,-51.07
2023/01/27 03:18:40+0000,-37.04,-41.29,-30.49,-47.62,-45.93,-51.46
2023/01/27 03:19:32+0000,-37.08,-43.48,-31.03,-47.51,-45.84,-51.12
2023/01/27 03:20:25+0000,-35.96,-43.56,-30.35,-46.95,-45.85,-50.95
2023/01/27 03:21:25+0000,-36.49,-43.27,-29.91,-46.90,-46.08,-51.59
2023/01/27 03:22:17+0000,-35.76,-41.72,-30.51,-47.88,-45.15,-51.37
2023/01/27 03:23:09+0000,-36.77,-42.20,-30.96,-47.82,-45.72,-51.04
2023/01/27 03:24:01+0000,-36.20,-43.34,-30.17,-47.84,-45.96,-50.93
2023/01/27 03:24:53+0000,-36.01,-43.18,-30.45,-47.12,-45.68,-50.54
2023/01/27 03:25:45+0000,-37.14,-43.58,-30.41,-47.39,-45.38,-51.15
2023/01/27 03:26:37+0000,-35.38,-43.69,-30.93,-47.47,-45.19,-50.94
2023/01/27 03:27:29+0000,-36.53,-42.77,-31.06,-47.22,-45.41,-51.19
2023/01/27 03:28:21+0000,-35.94,-43.75,-30.59,-47.10,-45.16,-50.70
2023/01/27 03:29:13+0000,-37.09,-42.23,-30.59,-47.40,-45.52,-51.64
2023/01/27 03:30:05+0000,-35.56,-42.67,-30.57,-47.71,-45.31,-51.18
2023/01/27 03:31:05+0000,-36.71,-43.94,-30.40,-46.62,-45.59,-51.43
2023/01/27 03:31:57+0000,-35.30,-44.20,-30.82,-46.94,-45.37,-50.86
2023/01/27 03:32:49+0000,-36.42,-43.01,-30.51,-46.87,-45.69,-50.89
2023/01/27 03:33:41+0000,-34.90,-43.18,-30.77,-47.20,-45.11,-51.08
2023/01/27 03:34:33+0000,-34.87,-42.88,-30.55,-46.62,-45.31,-51.22
2023/01/27 03:35:25+0000,-35.90,-43.20,-30.68,-46.76,-45.42,-50.70
2023/01/27 03:36:17+0000,-36.52,-42.46,-30.53,-47.21,-44.93,-51.40
2023/01/27 03:37:09+0000,-35.83,-42.36,-30.94,-47.33,-45.53,-51.25
2023/01/27 03:38:01+0000,-37.07,-42.61,-30.05,-47.01,-45.13,-51.10
2023/01/27 03:38:53+0000,-36.58,-44.47,-30.79,-47.32,-45.43,-51.29
2023/01/27 03:39:45+0000,-37.03,-40.48,-30.59,-47.58,-44.62,-51.05
2023/01/27 03:40:37+0000,-35.50,-43.78,-30.67,-46.67,-45.96,-51.14
2023/01/27 03:41:37+0000,-36.40,-42.93,-30.97,-46.64,-46.08,-50.79
2023/01/27 03:42:29+0000,-35.74,-42.14,-31.07,-46.44,-44.87,-50.69
2023/01/27 03:43:21+0000,-36.26,-41.22,-30.64,-46.42,-45.50,-50.83
2023/01/27 03:44:13+0000,-36.00,-41.02,-31.05,-47.19,-45.09,-50.53
2023/01/27 03:45:05+0000,-35.47,-43.67,-30.94,-46.38,-44.68,-50.56
2023/01/27 03:45:57+0000,-35.71,-43.49,-31.04,-46.22,-45.41,-50.98
2023/01/27 03:46:49+0000,-35.71,-40.84,-30.83,-46.19,-45.51,-51.29
2023/01/27 03:47:41+0000,-34.65,-40.95,-31.02,-46.57,-45.05,-50.68
2023/01/27 03:48:33+0000,-34.82,-42.78,-31.07,-45.99,-46.03,-50.20
2023/01/27 03:49:25+0000,-33.65,-43.82,-30.61,-46.44,-45.73,-50.74
2023/01/27 03:50:17+0000,-35.13,-41.94,-30.65,-44.33,-45.81,-50.02
2023/01/27 03:51:16+0000,-36.40,-41.71,-30.75,-44.06,-46.08,-50.78
2023/01/27 03:52:09+0000,-36.35,-41.10,-30.85,-44.59,-46.42,-50.14
2023/01/27 03:53:01+0000,-36.08,-43.29,-30.76,-43.85,-46.67,-50.18
2023/01/27 03:53:53+0000,-34.38,-44.66,-30.37,-44.55,-46.25,-49.89
2023/01/27 03:54:45+0000,-37.34,-41.26,-30.60,-44.26,-46.99,-48.67
2023/01/27 03:55:37+0000,-35.71,-45.21,-30.89,-43.34,-46.11,-49.88
2023/01/27 03:56:29+0000,-34.28,-42.72,-30.83,-44.04,-45.85,-50.04
2023/01/27 03:57:21+0000,-35.12,-41.03,-30.70,-43.63,-46.62,-49.90
2023/01/27 03:58:13+0000,-33.31,-40.89,-31.03,-44.21,-46.56,-50.24
2023/01/27 03:59:05+0000,-34.22,-41.97,-30.94,-43.22,-46.76,-49.66
2023/01/27 03:59:57+0000,-35.77,-42.06,-30.67,-43.11,-46.19,-49.84
2023/01/27 04:00:49+0000,-34.19,-40.30,-30.76,-43.40,-46.60,-49.49
2023/01/27 04:01:53+0000,-35.05,-42.40,-30.63,-43.73,-46.52,-49.87
2023/01/27 04:02:45+0000,-36.57,-40.99,-30.95,-43.41,-46.37,-49.67
2023/01/27 04:03:37+0000,-35.84,-38.99,-31.14,-42.95,-46.20,-49.95
2023/01/27 04:04:29+0000,-36.16,-39.92,-30.88,-42.86,-45.59,-49.19
2023/01/27 04:05:21+0000,-34.63,-42.57,-30.97,-42.70,-45.47,-49.64
2023/01/27 04:06:13+0000,-35.55,-39.25,-30.87,-43.65,-46.62,-50.38
2023/01/27 04:07:05+0000,-34.65,-44.27,-30.87,-43.23,-46.35,-50.31
2023/01/27 04:07:57+0000,-35.26,-41.67,-30.65,-43.28,-46.07,-49.99
2023/01/27 04:08:49+0000,-34.91,-41.40,-31.06,-43.29,-46.44,-50.60
2023/01/27 04:09:41+0000,-33.47,-40.41,-31.13,-42.84,-46.16,-49.97
2023/01/27 04:10:34+0000,-35.56,-39.79,-31.06,-43.15,-45.93,-50.47
2023/01/27 04:11:33+0000,-34.07,-39.45,-30.76,-42.78,-46.62,-50.06
2023/01/27 04:12:25+0000,-35.50,-39.89,-31.01,-40.06,-46.47,-50.42
2023/01/27 04:13:17+0000,-35.32,-41.00,-31.08,-40.07,-46.64,-49.95
2023/01/27 04:14:09+0000,-33.73,-41.80,-30.81,-40.33,-46.34,-49.65
2023/01/27 04:15:01+0000,-35.55,-41.68,-30.94,-43.11,-46.37,-49.74
2023/01/27 04:15:53+0000,-36.74,-43.16,-30.74,-43.36,-46.19,-50.25
2023/01/27 04:16:45+0000,-37.03,-40.52,-30.75,-43.02,-46.34,-49.20
2023/01/27 04:17:37+0000,-35.62,-43.05,-30.64,-42.86,-46.56,-49.45
2023/01/27 04:18:29+0000,-35.74,-42.25,-30.39,-43.34,-46.77,-49.70
2023/01/27 04:19:21+0000,-35.78,-44.53,-30.25,-42.82,-46.66,-49.63
2023/01/27 04:20:13+0000,-36.21,-41.29,-30.58,-42.39,-45.73,-49.79
2023/01/27 04:21:13+0000,-34.56,-39.13,-30.89,-43.86,-46.69,-49.80
2023/01/27 04:22:05+0000,-35.99,-43.65,-29.85,-42.39,-46.37,-49.66
2023/01/27 04:22:57+0000,-34.52,-41.84,-31.03,-42.24,-46.47,-49.29
2023/01/27 04:23:49+0000,-36.37,-40.21,-30.12,-42.47,-46.90,-49.56
2023/01/27 04:24:41+0000,-34.74,-39.28,-29.98,-42.99,-46.98,-49.73
2023/01/27 04:25:33+0000,-34.92,-42.14,-30.26,-42.35,-46.64,-49.28
2023/01/27 04:26:25+0000,-35.03,-42.12,-30.54,-42.80,-47.53,-49.20
2023/01/27 04:27:17+0000,-36.06,-41.17,-31.16,-42.40,-46.90,-49.21
2023/01/27 04:28:09+0000,-33.19,-42.32,-30.22,-42.51,-47.15,-49.19
2023/01/27 04:29:01+0000,-35.64,-42.03,-31.00,-42.14,-47.20,-49.63
2023/01/27 04:29:53+0000,-35.52,-43.60,-30.63,-41.47,-46.54,-50.03